Domov               UVHVVR             MKGP            O straneh              
ZDRAVSTVENO VARSTVO RASTLIN
  MREŽA AGROMET. POSTAJ
 ► PROGNOSTIČNA OBVESTILA
AGROMETEOROLOŠKI PODATKI -
ARSO
OBVLADOVANJE TVEGANJ ZARADI
NEUGODNIH VREMENSKIH RAZMER
  ► NARAVNE NESREČE
  ► SUŠA/MOČA
  ► NAMAKANJE
  ► ŽLED (gozdarstvo)
KARTOGRAFSKI PRIKAZI
SPLETNE POVEZAVE
PROJEKTI IN PUBLIKACIJE

AGROMETEOROLOŠKA MREŽA: VREMENSKE POSTAJE IN FENOLOŠKA OPAZOVANJA

Pregled podatkov za lokacijo Vnajnarje, meteorološka postaja 27470

Pregled senzorjev na lokaciji

ID Ime Zadnja
vrednost
Datum
zadnje
spremembe
Tip
senzorja
3756 Padavine (mm) 0 mm 12.12.2017 01:30 Generic 0.2 mm
3757 Relativna vlaga 2 m (% RH) 70,09 % RH 12.12.2017 01:30 Generic 0 - 100 %
3758 Temperatura 2 m (°C) 11,01 °C 12.12.2017 01:30 Generic -40 - +60 °C
3759 Omočenost lista (U) 0 U 12.12.2017 01:30 A730WET

Pregled podatkov zadnjih 24 ur

Zap.
št.
Datum in čas Vnajnarje
Omočenost
lista
Padavine Relativna
vlaga
2
m
Temperatura
2
m
0 12.12.2017 01:30 0 0 70,09 11,01
1 12.12.2017 01:00 0 0 70,74 10,99
2 12.12.2017 00:30 0 0 71,55 10,87
3 12.12.2017 00:00 0 0 73,26 10,6
4 11.12.2017 23:30 0 0 73,82 10,72
5 11.12.2017 23:00 0 0 73,36 11,01
6 11.12.2017 22:30 0 0 69,79 10,99
7 11.12.2017 22:00 0 0 70,72 10,79
8 11.12.2017 21:30 0 0 73,55 10,5
9 11.12.2017 21:00 0 0 72,09 10,62
10 11.12.2017 20:30 0 0 70,92 10,57
11 11.12.2017 20:00 0 0 71,75 10,79
12 11.12.2017 19:30 0 0 68,72 10,87
13 11.12.2017 19:00 0 0 69,4 10,82
14 11.12.2017 18:30 0 0 69,91 10,79
15 11.12.2017 18:00 0 0 68,52 10,89
16 11.12.2017 17:30 0 0 67,59 10,89
17 11.12.2017 17:00 0 0 68,57 10,99
18 11.12.2017 16:30 0 0 66,96 11,04
19 11.12.2017 16:00 0 0 67,01 10,92
20 11.12.2017 15:30 0 0 67,08 10,89
21 11.12.2017 15:00 0 0 67,84 10,65
22 11.12.2017 14:30 0 0 72,06 10,35
23 11.12.2017 14:00 0 0 71,89 10,35
24 11.12.2017 13:30 0 0 71,75 10,21
25 11.12.2017 13:00 0 0 74,75 10,01
26 11.12.2017 12:30 0 0 75,95 9,91
27 11.12.2017 12:00 0 0 75,26 9,82
28 11.12.2017 11:30 0 0 77,9 9,6
29 11.12.2017 11:00 0 0 78,17 9,21
30 11.12.2017 10:30 0 0,4 78,78 8,77
31 11.12.2017 10:00 0 0 83,32 7,86
32 11.12.2017 09:30 1 0 99,93 6,4
33 11.12.2017 09:00 4 0 99,93 5,84
34 11.12.2017 08:30 7 0 99,93 5,15
35 11.12.2017 08:00 4 0 99,93 4,96
36 11.12.2017 07:30 2 0 99,93 4,44
37 11.12.2017 07:00 2 0 99,93 4,18
38 11.12.2017 06:30 2 0,2 99,93 3,49
39 11.12.2017 06:00 2 0,4 99,93 3,22
40 11.12.2017 05:30 2 0,4 99,93 3,15
41 11.12.2017 05:00 2 1,4 99,93 3,88
42 11.12.2017 04:30 2 1,8 99,93 3,81
43 11.12.2017 04:00 2 2,2 99,93 3,3
44 11.12.2017 03:30 2 5,8 99,93 3,35
45 11.12.2017 03:00 2 4,2 99,93 2,95
46 11.12.2017 02:30 6 7,4 99,93 2,08
47 11.12.2017 02:00 9 0 99,93 1,66
© 2011 Ministrstvo za kmetijstvo, gozdarstvo in prehrano. Vse pravice pridržane.